Вернуться в каталог

LEMUR-2 KATIE

АктивенНаукаSSO
NORAD 67387·PAYLOAD·🇺🇸 United States

Запущен Jan 11, 2026 с Vandenberg Space Force Base

Loading…

Ближайшие Пролёты (ближайшие 24 часа)

TLE

СвежийSource: Space-Track

Эпоха: Sep 14, 2026, 10:47 UTC

1 67387U 26004AA  26257.44994272  .00003202  00000-0  33227-3 0  9993
2 67387  97.8093 255.4136 0003850 133.5304 226.6234 14.90666114 36608

Отслеживайте LEMUR-2 KATIE в реальном времени с AllMySat

Download on the App Store